• En España
  • Lista de países
  • Para 7 días
  • Temperatura del agua
  • Mapa Satelital
  • El tiempo en el mapa
  • Informadores
  • user-avatar
    Iniciar sesión

    Tiempo cada hora Alicante

    Hoy, 22 Junio, Viernes

    Tiempo Temperatura Precipitaciones Viento Presión Humedad
    00:00 +27°C° 0 mm 1 mps 762 mmHg 52%
    01:00 +26°C° 0 mm 1 mps 762 mmHg 53%
    02:00 +26°C° 0 mm 1 mps 762 mmHg 54%
    03:00 +23°C° 0 mm 0 mps 762 mmHg 55%
    04:00 +24°C° 0 mm 0 mps 762 mmHg 52%
    05:00 +25°C° 0 mm 0 mps 762 mmHg 50%
    06:00 +26°C° 0 mm 0 mps 762 mmHg 47%
    07:00 +29°C° 0 mm 1 mps 762 mmHg 43%
    08:00 +30°C° 0 mm 1 mps 762 mmHg 38%
    09:00 +32°C° 0 mm 1 mps 762 mmHg 33%
    10:00 +34°C° 0 mm 2 mps 762 mmHg 31%
    11:00 +35°C° 0 mm 3 mps 762 mmHg 29%
    12:00 +37°C° 0 mm 4 mps 762 mmHg 26%
    13:00 +36°C° 0 mm 4 mps 762 mmHg 27%
    14:00 +36°C° 0 mm 5 mps 761 mmHg 27%
    15:00 +36°C° 0 mm 5 mps 761 mmHg 28%
    16:00 +35°C° 0 mm 4 mps 761 mmHg 30%
    17:00 +34°C° 0 mm 4 mps 761 mmHg 33%
    18:00 +33°C° 0 mm 3 mps 760 mmHg 35%
    19:00 +31°C° 0 mm 3 mps 761 mmHg 40%
    20:00 +30°C° 0 mm 2 mps 761 mmHg 44%
    21:00 +29°C° 0 mm 2 mps 761 mmHg 49%
    22:00 +28°C° 0 mm 2 mps 761 mmHg 51%
    23:00 +27°C° 0 mm 1 mps 761 mmHg 53%

    Mañana, 23 Junio, Sábado

    Tiempo Temperatura Precipitaciones Viento Presión Humedad
    00:00 +27°C° 0 mm 1 mps 761 mmHg 55%
    01:00 +26°C° 0 mm 1 mps 761 mmHg 55%
    02:00 +26°C° 0 mm 1 mps 761 mmHg 54%
    03:00 +26°C° 0 mm 1 mps 761 mmHg 54%
    04:00 +27°C° 0 mm 2 mps 761 mmHg 50%
    05:00 +27°C° 0 mm 2 mps 761 mmHg 46%
    06:00 +28°C° 0 mm 2 mps 762 mmHg 42%
    07:00 +30°C° 0 mm 2 mps 762 mmHg 38%
    08:00 +31°C° 0 mm 3 mps 762 mmHg 34%
    09:00 +34°C° 0 mm 4 mps 762 mmHg 29%
    10:00 +35°C° 0 mm 4 mps 762 mmHg 29%
    11:00 +36°C° 0 mm 5 mps 762 mmHg 29%
    12:00 +36°C° 0 mm 5 mps 762 mmHg 29%
    13:00 +36°C° 0 mm 5 mps 762 mmHg 31%
    14:00 +36°C° 0 mm 5 mps 761 mmHg 33%
    15:00 +36°C° 0 mm 6 mps 761 mmHg 34%
    16:00 +35°C° 0 mm 5 mps 761 mmHg 38%
    17:00 +34°C° 0 mm 5 mps 761 mmHg 41%
    18:00 +33°C° 0 mm 4 mps 761 mmHg 44%
    19:00 +32°C° 0 mm 4 mps 761 mmHg 50%
    20:00 +29°C° 0 mm 3 mps 762 mmHg 56%
    21:00 +28°C° 0 mm 3 mps 762 mmHg 62%
    22:00 +28°C° 0 mm 2 mps 762 mmHg 66%
    23:00 +27°C° 0 mm 2 mps 762 mmHg 69%

    Pasado mañana, 24 Junio, Domingo

    Tiempo Temperatura Precipitaciones Viento Presión Humedad
    00:00 +27°C° 0 mm 1 mps 762 mmHg 72%
    01:00 +26°C° 0 mm 1 mps 762 mmHg 73%
    02:00 +26°C° 0 mm 1 mps 762 mmHg 74%
    03:00 +26°C° 0 mm 2 mps 761 mmHg 75%
    04:00 +26°C° 0 mm 2 mps 761 mmHg 71%
    05:00 +26°C° 0 mm 2 mps 761 mmHg 67%
    06:00 +27°C° 0 mm 2 mps 761 mmHg 63%
    07:00 +29°C° 0 mm 3 mps 761 mmHg 54%
    08:00 +30°C° 0 mm 3 mps 761 mmHg 46%
    09:00 +33°C° 0 mm 3 mps 761 mmHg 38%
    10:00 +35°C° 0 mm 3 mps 761 mmHg 34%
    11:00 +36°C° 0 mm 4 mps 761 mmHg 31%
    12:00 +37°C° 0 mm 4 mps 761 mmHg 28%
    13:00 +37°C° 0 mm 4 mps 760 mmHg 29%
    14:00 +38°C° 0 mm 4 mps 760 mmHg 29%
    15:00 +38°C° 0 mm 4 mps 759 mmHg 29%
    16:00 +37°C° 0 mm 4 mps 759 mmHg 33%
    17:00 +36°C° 0 mm 4 mps 759 mmHg 36%
    18:00 +35°C° 0 mm 3 mps 758 mmHg 39%
    19:00 +33°C° 0 mm 3 mps 759 mmHg 44%
    20:00 +31°C° 0 mm 2 mps 759 mmHg 50%
    21:00 +30°C° 0 mm 2 mps 759 mmHg 55%
    22:00 +29°C° 0 mm 2 mps 759 mmHg 58%
    23:00 +28°C° 0 mm 2 mps 759 mmHg 60%

    25 Junio, Lunes

    Tiempo Temperatura Precipitaciones Viento Presión Humedad
    00:00 +28°C° 0 mm 2 mps 759 mmHg 63%
    01:00 +27°C° 0 mm 1 mps 759 mmHg 65%
    02:00 +27°C° 0 mm 1 mps 759 mmHg 67%
    03:00 +26°C° 0 mm 1 mps 759 mmHg 70%
    04:00 +27°C° 0 mm 1 mps 759 mmHg 66%
    05:00 +27°C° 0 mm 2 mps 759 mmHg 63%
    06:00 +27°C° 0 mm 2 mps 760 mmHg 60%
    07:00 +29°C° 0 mm 2 mps 760 mmHg 53%
    08:00 +31°C° 0 mm 3 mps 760 mmHg 46%
    09:00 +33°C° 0 mm 3 mps 760 mmHg 38%
    10:00 +34°C° 0 mm 3 mps 760 mmHg 36%
    11:00 +35°C° 0 mm 4 mps 760 mmHg 34%
    12:00 +36°C° 0 mm 4 mps 760 mmHg 32%
    13:00 +36°C° 0 mm 4 mps 760 mmHg 33%
    14:00 +36°C° 0 mm 4 mps 760 mmHg 34%
    15:00 +36°C° 0 mm 4 mps 759 mmHg 35%
    16:00 +35°C° 0 mm 4 mps 759 mmHg 39%
    17:00 +34°C° 0 mm 4 mps 759 mmHg 42%
    18:00 +33°C° 0 mm 4 mps 759 mmHg 45%
    19:00 +31°C° 0,1 mm 3 mps 760 mmHg 51%
    20:00 +30°C° 0,1 mm 3 mps 760 mmHg 56%
    21:00 +28°C° 0,1 mm 2 mps 761 mmHg 62%
    22:00 +28°C° 0 mm 2 mps 760 mmHg 63%
    23:00 +27°C° 0 mm 2 mps 760 mmHg 65%

    26 Junio, Martes

    Tiempo Temperatura Precipitaciones Viento Presión Humedad
    00:00 +27°C° 0 mm 1 mps 760 mmHg 66%
    01:00 +26°C° 0 mm 1 mps 760 mmHg 68%
    02:00 +26°C° 0 mm 2 mps 760 mmHg 69%
    03:00 +26°C° 0 mm 2 mps 760 mmHg 70%
    04:00 +26°C° 0 mm 1 mps 760 mmHg 68%
    05:00 +26°C° 0 mm 1 mps 760 mmHg 66%
    06:00 +26°C° 0 mm 1 mps 760 mmHg 64%
    07:00 +28°C° 0 mm 2 mps 760 mmHg 55%
    08:00 +29°C° 0 mm 2 mps 760 mmHg 47%
    09:00 +31°C° 0 mm 2 mps 760 mmHg 38%
    10:00 +33°C° 0 mm 3 mps 760 mmHg 35%
    11:00 +35°C° 0 mm 3 mps 759 mmHg 32%
    12:00 +36°C° 0 mm 4 mps 759 mmHg 28%
    13:00 +36°C° 0 mm 4 mps 759 mmHg 29%
    14:00 +36°C° 0 mm 5 mps 759 mmHg 29%
    15:00 +36°C° 0 mm 5 mps 758 mmHg 30%
    16:00 +35°C° 0 mm 4 mps 758 mmHg 33%
    17:00 +34°C° 0 mm 4 mps 758 mmHg 37%
    18:00 +33°C° 0 mm 4 mps 759 mmHg 40%
    19:00 +31°C° 0 mm 3 mps 759 mmHg 45%
    20:00 +30°C° 0 mm 2 mps 760 mmHg 50%
    21:00 +29°C° 0 mm 2 mps 760 mmHg 55%
    22:00 +28°C° 0 mm 2 mps 760 mmHg 59%
    23:00 +27°C° 0 mm 2 mps 760 mmHg 62%

    27 Junio, Miércoles

    Tiempo Temperatura Precipitaciones Viento Presión Humedad
    00:00 +27°C° 0 mm 2 mps 760 mmHg 65%
    01:00 +26°C° 0 mm 2 mps 760 mmHg 68%
    02:00 +26°C° 0 mm 2 mps 760 mmHg 70%
    03:00 +25°C° 0 mm 2 mps 760 mmHg 73%
    04:00 +26°C° 0 mm 2 mps 760 mmHg 72%
    05:00 +26°C° 0 mm 2 mps 761 mmHg 71%
    06:00 +26°C° 0 mm 1 mps 761 mmHg 71%
    07:00 +27°C° 0 mm 2 mps 761 mmHg 62%
    08:00 +29°C° 0 mm 2 mps 761 mmHg 53%
    09:00 +30°C° 0 mm 2 mps 761 mmHg 44%
    10:00 +31°C° 0 mm 3 mps 761 mmHg 41%
    11:00 +33°C° 0 mm 3 mps 761 mmHg 39%
    12:00 +34°C° 0 mm 4 mps 760 mmHg 37%
    13:00 +35°C° 0 mm 4 mps 760 mmHg 37%
    14:00 +35°C° 0 mm 4 mps 760 mmHg 37%
    15:00 +35°C° 0 mm 4 mps 760 mmHg 37%
    16:00 +34°C° 0 mm 4 mps 760 mmHg 41%
    17:00 +33°C° 0 mm 4 mps 760 mmHg 44%
    18:00 +32°C° 0 mm 4 mps 760 mmHg 47%
    19:00 +30°C° 0 mm 3 mps 760 mmHg 53%
    20:00 +29°C° 0 mm 3 mps 761 mmHg 58%
    21:00 +27°C° 0 mm 2 mps 761 mmHg 64%
    22:00 +27°C° 0 mm 2 mps 761 mmHg 66%
    23:00 +27°C° 0 mm 1 mps 761 mmHg 68%
    Mostrar más